Dewpoint
23 23 23 22 21 19 17 16 15 13 14 15 14 17 16 22 24 19 28 30 30 28 47 50 51 55 58 59 55 53 55 53 54 53 52 52 53 54 56 58 59 60 60 63 64 65 66 66 66 66 66 66 66 66 65 66 68 69 69 69 69 69 69 69 69 69 70 69 68 68 68 68 67 66 66 65 65 64 65 66 67 67 68 68 67 69 70
24 24 23 23 21 21 22 21 20 17 16 15 14 14 13 13 22 24 27 36 29 27 47 49 51 54 57 59 55 52 53 54 53 53 52 51 51 52 54 56 57 59 58 60 63 65 66 67 66 67 68 68 69 66 66 66 67 69 71 70 70 70 70 70 70 70 71 70 70 69 68 68 68 67 67 67 66 66 66 66 67 67 68 68 67 68 69
25 25 27 24 24 24 23 23 23 20 17 15 14 13 14 27 28 29 21 29 29 37 45 51 51 53 54 55 55 53 53 55 51 53 52 51 50 51 53 54 55 57 58 58 60 63 64 67 68 68 68 68 69 70 68 66 67 68 70 71 71 71 72 70 70 70 70 71 71 70 70 69 69 68 68 67 67 67 67 67 68 68 68 68 68 67 68
24 26 25 26 25 25 22 20 20 19 17 19 15 21 27 33 36 29 20 30 32 41 47 50 48 47 49 50 53 54 52 54 54 51 53 53 50 50 52 56 56 56 57 57 58 60 62 63 65 67 68 69 69 69 69 70 69 70 71 71 71 70 70 69 70 70 70 70 71 71 71 70 69 69 68 68 67 68 68 68 68 68 68 68 68 68 68
25 26 27 28 26 22 16 17 21 21 20 21 20 30 33 40 42 31 26 38 44 47 50 47 46 45 46 47 49 52 54 53 53 50 51 50 51 50 50 51 55 57 57 57 57 59 61 62 64 66 68 69 69 69 70 70 71 70 70 70 70 70 70 70 70 70 70 70 70 71 71 71 70 70 69 68 68 67 67 68 68 69 69 68 68 68 68
25 26 30 29 24 19 17 28 24 24 22 21 21 31 35 44 44 44 46 46 46 45 45 46 47 45 44 45 47 49 52 53 53 51 51 50 50 50 50 50 51 53 56 58 58 57 60 61 63 65 67 70 70 71 71 70 70 70 70 70 70 70 70 70 70 70 70 70 70 71 71 71 71 70 69 68 68 67 68 68 69 69 68 68 68 69 69
25 29 28 24 19 19 28 29 27 26 27 27 29 38 44 44 44 44 43 43 44 44 45 45 47 46 45 46 46 47 49 53 51 52 53 51 49 50 50 50 51 52 54 55 55 56 58 59 61 63 63 65 70 72 70 70 69 69 69 70 70 70 70 70 70 70 70 70 71 72 72 71 71 70 70 69 68 68 67 68 68 69 68 68 68 69 69
28 24 22 14 18 27 30 27 28 34 37 39 40 39 43 44 43 44 43 43 43 44 44 44 45 49 46 46 47 47 48 51 54 53 53 53 49 50 50 50 51 51 52 53 55 57 58 57 58 61 61 62 62 65 70 68 69 69 68 69 70 70 70 69 69 69 69 70 71 72 72 71 71 70 70 69 69 68 68 68 68 69 69 69 68 68 69
23 24 23 21 27 25 26 27 36 39 37 38 39 35 38 44 44 44 43 43 43 43 43 44 45 45 48 48 46 45 47 49 52 53 52 52 51 49 50 50 50 51 52 53 54 56 55 56 56 60 62 63 61 61 64 66 68 68 68 69 69 70 70 69 69 69 69 70 71 72 72 71 71 70 70 70 69 69 68 68 68 69 69 69 69 68 69
28 25 22 19 21 17 24 39 42 41 40 42 42 40 38 44 43 44 43 43 43 43 43 44 44 46 50 48 46 45 46 48 49 54 53 52 52 50 49 50 50 51 52 53 54 55 54 55 55 56 58 62 60 61 63 65 67 68 68 69 69 70 70 70 70 70 70 70 71 72 72 71 71 71 70 70 69 69 68 68 68 68 69 69 69 69 68
29 27 21 18 16 21 34 37 40 40 40 41 43 38 33 44 42 43 44 42 43 44 44 44 44 43 42 43 44 45 46 48 50 50 55 53 51 52 51 49 49 50 51 53 54 54 54 54 55 55 56 57 59 60 63 64 67 68 68 68 69 69 69 70 70 70 70 71 71 72 72 71 71 71 70 70 69 69 69 68 68 68 69 69 69 69 68
30 27 24 23 25 24 36 38 39 39 40 42 37 30 31 43 42 43 44 42 43 44 44 45 44 43 42 42 44 45 46 48 49 51 53 53 52 51 54 52 52 52 53 52 52 52 52 53 54 55 56 58 59 60 61 62 64 67 68 68 68 68 68 69 69 70 70 71 72 72 72 72 71 71 71 70 70 69 69 68 68 68 69 69 69 69 69
32 32 29 29 29 37 39 39 39 40 43 40 29 26 36 42 42 44 44 43 43 44 44 44 43 44 45 45 46 46 46 47 48 51 54 53 52 52 53 51 55 52 52 52 52 52 53 54 54 55 56 57 59 60 61 62 63 67 69 72 70 68 68 68 68 69 70 70 71 72 72 72 71 71 71 70 70 69 69 69 68 68 68 69 69 69 69
27 29 29 29 29 39 39 41 40 43 38 27 26 37 42 43 43 44 43 43 44 44 44 44 44 44 45 46 45 45 46 47 48 49 52 53 52 51 54 54 53 51 52 53 52 52 53 53 54 55 56 57 59 60 61 61 62 64 67 69 71 71 69 67 67 68 69 70 71 72 72 72 72 71 71 71 70 70 69 69 69 68 68 68 68 69 69
31 29 28 27 24 37 42 40 38 43 33 34 41 43 44 45 44 43 43 44 44 44 43 43 44 44 44 44 45 45 45 46 47 48 50 51 53 52 52 52 51 52 51 52 53 53 52 53 54 55 56 57 59 60 60 61 62 64 65 68 71 72 71 68 67 67 69 70 71 72 72 72 71 71 71 71 71 70 70 69 69 69 69 68 68 68 69
22 25 22 24 32 37 42 38 33 38 41 44 44 43 42 43 43 42 42 42 44 44 43 43 43 43 44 44 44 45 45 46 47 48 48 51 52 52 52 53 52 52 51 53 53 53 53 53 55 56 57 58 59 60 60 62 63 64 66 68 72 74 73 71 68 67 68 70 71 72 72 72 72 71 71 71 71 71 70 70 69 69 68 68 68 68 68
29 26 28 34 39 41 43 43 41 41 43 44 43 42 41 41 41 42 41 41 42 43 43 43 43 43 43 44 44 45 46 46 47 47 48 50 52 52 52 53 53 52 51 52 53 53 53 54 55 57 59 59 60 60 61 62 63 64 66 68 71 73 75 74 72 69 68 69 71 72 72 72 72 71 71 71 71 71 71 70 69 69 69 68 68 68 68
36 36 35 34 34 37 39 38 37 39 43 43 42 40 40 40 41 41 41 41 41 42 43 43 43 43 44 44 45 45 45 46 47 49 48 50 51 51 50 51 53 54 54 52 52 52 53 54 56 58 59 60 60 61 62 63 64 65 67 69 71 73 74 74 74 72 70 69 70 72 72 72 72 72 71 71 71 71 71 70 69 69 68 68 68 68 68
30 27 35 35 36 37 37 35 36 41 40 40 40 40 40 39 40 41 41 41 41 42 43 43 43 43 43 44 44 45 45 46 46 47 48 49 50 51 51 51 52 53 52 51 52 52 53 55 57 59 60 61 62 63 64 65 66 67 68 70 72 74 74 74 74 73 71 69 70 71 72 72 72 72 72 71 71 71 71 70 70 69 69 68 68 68 68
30 29 32 34 36 36 35 36 37 37 38 39 39 40 40 40 40 41 41 41 41 42 42 43 43 43 43 43 44 45 45 46 47 47 48 49 50 51 51 52 53 53 52 51 51 52 53 55 57 58 59 61 62 62 63 65 67 69 71 72 73 73 74 74 73 73 71 70 70 71 72 72 72 72 72 72 71 71 71 71 70 69 69 69 68 68 68
32 34 34 35 35 33 36 39 37 37 38 39 39 40 40 40 40 40 41 42 42 42 42 43 43 43 43 44 44 45 45 46 47 48 49 49 50 51 51 52 54 53 52 52 51 52 54 56 57 57 58 60 60 61 62 64 66 67 68 71 72 73 73 73 73 72 71 69 70 72 72 72 72 72 72 72 72 72 72 71 71 70 70 69 69 68 68
30 31 32 35 30 30 32 34 35 37 39 40 40 40 40 40 41 41 41 42 42 42 42 43 43 43 43 44 44 44 45 45 46 47 48 49 50 51 52 53 53 52 53 53 52 53 54 56 56 56 58 59 60 61 61 63 64 65 66 68 71 71 72 73 73 72 71 69 70 71 72 73 73 70 60 52 58 72 72 68 65 63 63 69 70 69 68
29 32 36 37 36 36 36 36 37 38 40 41 40 40 40 41 42 42 41 41 42 42 42 43 43 42 43 43 44 44 45 46 47 48 49 49 50 51 52 52 52 51 51 54 54 54 55 57 56 56 58 59 59 60 60 61 62 64 64 67 69 71 71 72 71 72 71 70 69 71 72 72 72 66 67 67 59 49 52 55 62 58 57 59 61 63 68
35 36 38 38 37 36 37 38 38 39 41 42 41 41 42 42 42 42 42 42 42 42 43 43 44 43 43 44 44 44 45 46 48 49 50 50 51 52 53 52 52 52 52 52 53 54 55 57 56 56 58 58 59 59 60 60 61 62 64 66 69 70 71 69 69 70 71 71 71 71 69 68 68 68 68 69 69 58 48 53 55 57 54 54 56 57 59
35 38 39 39 39 39 40 41 41 42 43 44 43 42 42 42 42 43 43 43 44 43 43 43 43 44 43 43 43 44 46 48 50 51 53 55 55 54 53 52 52 52 51 51 53 55 57 57 57 58 57 58 58 59 59 59 60 62 63 65 68 70 70 69 69 69 69 69 70 69 69 69 69 69 69 70 71 70 59 46 45 49 51 53 52 51 52
38 39 40 40 40 40 41 40 42 42 43 44 43 43 44 46 44 44 44 44 44 43 43 42 42 43 44 44 45 47 48 49 52 52 53 53 53 52 51 51 51 51 51 53 55 57 58 58 57 57 57 57 58 58 59 59 60 61 62 65 68 69 69 69 69 68 68 68 68 68 69 71 70 70 70 70 72 72 68 66 65 59 54 50 51 51 51
39 40 39 38 38 39 41 40 40 41 42 43 44 44 44 43 45 45 44 43 43 43 43 43 44 44 45 46 46 47 48 49 50 51 51 52 53 52 51 51 51 52 54 55 57 58 58 57 57 56 56 57 58 58 59 59 60 61 63 66 69 70 73 74 70 69 69 68 67 67 67 67 68 69 70 70 70 70 69 69 69 69 69 67 54 51 60
39 39 39 37 36 37 39 41 42 43 43 43 44 44 43 44 44 44 42 41 41 41 42 42 42 42 43 44 45 45 46 47 48 49 51 52 52 52 51 51 51 52 55 57 58 58 57 56 56 56 56 57 58 58 59 60 60 63 66 68 68 68 68 69 69 69 68 67 68 67 67 67 67 67 67 67 68 68 67 69 69 69 69 69 66 52 46
38 39 39 38 38 39 40 41 43 43 44 44 46 46 46 44 42 42 41 41 41 41 41 41 43 44 44 44 45 45 46 46 47 49 51 52 53 52 52 52 52 55 56 57 58 56 55 55 55 55 56 57 58 59 59 60 61 64 65 66 67 66 66 67 68 70 68 67 67 67 66 66 66 67 67 67 67 67 67 68 68 68 69 67 61 60 58
39 40 41 40 40 40 41 41 42 42 43 43 44 44 44 43 42 41 41 42 42 42 42 42 43 43 44 44 45 45 46 46 47 50 51 52 52 52 52 52 54 56 57 56 55 54 54 54 55 55 56 57 58 59 60 61 62 64 64 64 64 64 64 64 66 69 68 67 67 66 66 67 67 68 68 68 68 68 67 67 67 67 67 64 63 65 64
40 41 41 41 40 40 38 37 39 41 42 43 44 44 43 43 42 41 42 42 42 42 42 43 43 42 42 42 43 44 46 46 48 49 50 51 52 53 53 54 55 55 55 55 54 54 54 54 55 55 56 57 58 59 60 61 64 64 63 63 63 62 60 60 63 68 68 67 66 66 67 67 68 68 68 68 68 67 67 67 67 67 65 64 65 66 63
38 38 39 39 38 37 37 37 37 40 42 43 43 43 42 41 41 41 42 42 43 43 44 43 42 42 43 44 45 46 46 47 48 49 50 51 52 54 55 56 57 55 56 55 54 54 54 54 54 55 56 57 58 59 60 62 63 62 62 62 62 62 62 60 62 64 67 67 67 66 67 68 68 68 67 67 67 67 67 67 67 66 66 66 66 64 62
36 35 35 36 39 37 36 37 37 38 40 42 43 44 43 42 42 42 42 43 44 45 44 44 44 44 44 45 45 46 47 48 49 50 50 51 54 56 56 56 55 55 55 54 53 53 54 53 54 56 56 57 58 59 60 63 62 61 62 62 61 61 62 60 60 62 65 67 67 67 68 68 68 68 67 67 68 67 67 67 67 66 66 66 65 64 63
37 36 36 37 36 36 36 37 39 40 41 43 44 44 43 42 42 42 42 44 44 44 44 45 45 46 46 46 46 47 48 49 49 50 51 54 54 54 54 55 54 54 54 53 53 53 53 54 55 56 56 56 57 58 60 62 62 61 61 61 61 60 60 60 60 61 62 63 64 67 68 68 68 68 68 68 68 68 67 67 66 66 66 65 65 65 60
39 39 38 39 40 39 40 38 38 40 42 42 43 43 44 43 43 42 43 44 43 44 45 46 46 47 47 48 48 48 48 48 50 52 53 52 52 52 52 52 53 53 52 51 51 52 53 53 55 55 56 56 57 58 59 60 60 60 60 59 60 60 59 60 59 59 60 60 61 62 63 64 66 68 68 68 68 68 67 66 66 65 65 64 63 62 58
41 40 41 39 39 41 41 41 42 42 42 41 42 43 44 43 43 42 42 43 44 45 46 46 47 47 48 50 50 49 50 51 52 52 51 50 50 50 50 50 50 50 50 49 50 52 52 54 55 56 56 56 57 58 58 59 58 58 59 59 59 59 59 59 58 58 59 59 59 60 61 62 62 62 63 66 67 66 66 65 64 63 63 62 61 59 58
42 40 39 40 40 40 40 41 43 42 42 42 43 43 44 43 43 43 44 44 45 45 46 46 47 47 49 49 50 51 51 52 52 51 50 50 49 49 49 49 49 49 49 48 50 52 52 54 54 55 55 55 56 56 58 57 56 56 56 56 57 58 57 57 57 57 57 57 57 57 58 58 58 59 60 61 62 62 62 62 61 61 60 60 60 60 59
40 41 41 40 41 41 40 40 43 43 43 43 44 45 44 44 44 43 43 44 45 45 47 47 47 48 49 49 48 48 48 50 51 50 49 49 48 48 48 48 48 49 48 48 50 52 53 54 54 54 53 54 54 55 56 56 55 53 53 54 55 55 56 56 56 56 56 56 57 56 55 55 56 56 57 58 58 59 59 59 59 59 58 58 58 58 57
39 40 41 42 42 41 41 42 42 43 43 42 43 43 45 45 45 44 43 44 45 47 46 46 47 48 48 47 47 47 47 48 50 50 49 48 49 47 47 48 48 49 50 51 51 51 53 53 52 52 52 53 53 53 55 55 55 52 51 52 53 53 53 54 54 55 55 55 55 55 55 54 54 54 55 55 55 56 56 56 55 55 55 55 55 54 54
40 39 39 42 40 41 41 42 42 43 42 43 43 44 45 45 44 43 43 44 45 47 46 46 47 47 47 47 46 46 46 47 48 48 48 49 48 47 46 47 47 48 49 50 51 51 52 52 52 51 51 52 53 53 53 53 52 53 52 50 50 51 52 52 52 52 53 53 53 54 53 53 53 53 54 54 54 54 53 53 53 53 52 52 52 52 52
40 40 40 41 41 42 41 42 42 42 42 44 44 45 44 45 45 44 43 44 45 46 46 47 47 47 46 47 47 46 46 47 47 47 47 48 47 46 46 45 47 47 48 49 50 50 51 51 52 51 51 51 52 52 52 51 50 49 49 49 49 48 50 50 51 51 51 51 52 51 51 51 51 51 52 52 52 52 52 52 52 52 51 51 51 51 51
40 41 40 41 40 40 42 42 43 42 42 42 44 45 45 44 45 44 45 45 45 46 46 46 47 46 46 46 47 47 47 47 46 47 47 46 46 46 45 46 47 46 47 48 48 48 48 50 51 52 51 51 52 51 51 51 49 48 48 47 47 48 48 49 50 50 50 50 50 50 50 50 50 50 50 50 50 51 51 51 51 51 50 51 50 50 50
41 41 41 41 41 42 42 42 42 41 42 42 43 45 45 45 44 45 45 45 45 45 45 46 46 46 46 45 45 45 46 47 47 46 46 46 46 46 46 46 47 46 47 47 45 46 47 47 48 50 51 50 50 49 49 49 49 49 48 47 47 47 47 47 47 49 49 48 49 49 49 49 49 49 49 49 49 49 49 49 49 49 50 49 50 49 49
42 41 42 41 41 42 41 42 42 42 42 42 43 43 45 44 44 44 45 45 45 46 45 45 45 45 45 45 45 44 44 45 45 46 46 45 46 46 46 46 46 47 47 46 46 45 47 47 47 47 50 49 49 49 49 47 47 48 48 47 47 46 46 46 46 46 47 48 48 48 48 49 49 48 48 48 48 48 49 49 49 49 49 49 49 49 48
41 41 41 41 42 43 41 41 41 41 43 44 43 43 44 44 43 44 45 45 45 46 46 45 45 46 46 45 45 44 45 45 45 45 44 44 44 45 48 46 46 45 45 45 44 46 46 47 47 47 47 47 48 48 46 46 47 46 46 47 46 46 46 46 46 46 46 47 47 47 47 47 48 48 48 48 49 48 48 48 48 48 48 48 48 47 47
41 41 43 46 41 39 40 40 42 43 43 43 41 43 45 44 44 43 45 45 45 46 46 46 45 45 45 45 45 44 44 45 45 45 45 45 45 46 49 46 45 45 45 45 44 43 45 47 45 46 46 46 46 46 46 46 45 45 45 45 46 45 45 45 45 45 46 46 47 46 46 45 46 46 47 47 47 47 48 49 48 48 48 47 47 47 47
41 41 41 41 40 41 43 44 44 41 41 40 40 40 45 44 45 45 45 45 45 45 46 46 46 45 46 46 46 45 44 43 44 45 46 46 47 47 46 45 44 45 45 43 43 42 43 44 45 45 45 45 45 43 44 45 45 44 43 44 45 45 45 44 44 44 44 45 46 47 47 47 45 45 46 46 46 46 46 45 46 46 46 46 46 47 47
38 38 39 39 38 39 41 40 39 38 38 38 39 43 44 43 44 45 45 44 44 45 45 46 46 46 46 46 46 46 46 44 41 42 45 46 45 45 46 45 43 43 43 43 43 43 44 43 43 44 44 44 43 42 42 43 45 45 44 43 43 44 44 44 44 44 44 45 44 44 45 45 45 44 45 45 46 46 46 45 45 45 45 44 44 44 44
38 39 40 42 41 40 39 39 40 42 39 41 42 42 44 44 44 45 45 45 44 44 44 45 45 45 46 46 47 47 47 47 45 43 45 45 44 43 43 43 42 41 41 40 40 40 43 42 42 42 43 42 40 41 41 41 43 44 44 44 44 43 44 44 44 44 44 44 44 44 44 44 44 44 44 44 45 45 46 45 46 45 44 44 45 45 45
39 40 40 39 40 39 37 35 36 36 38 42 40 42 42 43 42 43 44 44 44 45 43 43 45 46 46 46 46 47 47 47 47 46 45 44 43 41 42 41 40 41 40 38 39 37 40 41 41 41 41 40 40 40 40 40 41 41 42 43 43 43 44 44 43 43 43 44 43 43 44 44 44 45 46 45 45 45 45 45 45 45 45 45 45 45 45
39 38 38 42 38 39 37 37 36 39 39 41 42 44 43 43 43 45 45 44 43 43 43 43 43 45 46 46 46 47 47 47 48 46 45 44 43 43 42 41 40 39 37 37 37 35 35 36 36 38 37 38 38 39 39 39 39 40 40 40 41 42 42 43 43 42 42 43 42 42 42 43 42 42 43 44 44 44 44 44 44 44 44 44 44 44 44
37 38 40 41 40 41 40 40 41 41 41 41 42 43 43 44 44 44 45 44 43 42 42 42 41 42 44 46 47 47 47 48 48 47 46 45 42 41 42 40 40 39 36 34 33 34 35 37 38 39 38 36 36 37 39 39 38 38 39 40 39 39 39 40 41 41 42 42 42 41 42 41 41 41 42 42 43 43 43 43 43 43 43 42 42 42 40